{"data":{"norad_id":43080,"epoch":"2026-09-20T04:26:06.097920Z","epoch_age_seconds":78587,"freshness":"FRESH","line1":"1 43080U 17084A   26263.18479280  .00004222  00000+0  15997-3 0  9996","line2":"2 43080  97.1121 298.5707 0000247 196.0478 164.0754 15.27404532486181","mean_motion":15.27404532,"eccentricity":2.47e-5,"inclination_deg":97.1121,"raan_deg":298.5707,"arg_perigee_deg":196.0478,"mean_anomaly_deg":164.0754,"bstar":0.00015997,"rev_number":48618,"period_min":94.277578063386,"perigee_km":483.40507637934,"apogee_km":483.74404493044,"semimajor_km":6861.7115606549,"source":"CELESTRAK","updated_at":"2026-09-20T09:00:14.272887Z"}}